CW9585 Weather Reports


Display with metric or nautical units.
time (UTC)temp
F
wind
direction
speed
MPH
gust
MPH
rain 1hr
in
rain 24hr
in
rain mn
in
humidity
%
barometer
mb
20260903130704 54 36 1.0 4.0 0.00 0.00 0.00 92 1016.1
20260903130204 54 46 1.0 4.0 0.00 0.00 0.00 92 1016.1
20260903125704 54 9 1.0 4.0 0.00 0.00 0.00 92 1016.1
20260903124704 54 15 1.0 3.0 0.00 0.00 0.00 91 1016.2
20260903124205 54 25 1.0 0.0 0.00 0.00 0.00 91 1016.3
20260903123704 54 337 0.0 0.0 0.00 0.00 0.00 91 1016.5
20260903123205 54 337 0.0 1.0 0.00 0.00 0.00 91 1016.4
20260903122704 54 337 0.0 3.0 0.00 0.00 0.00 91 1016.5
20260903122204 54 337 0.0 4.0 0.00 0.00 0.00 91 1016.4
20260903121705 54 336 1.0 4.0 0.00 0.00 0.00 91 1016.4
20260903121204 54 336 1.0 4.0 0.00 0.00 0.00 91 1016.4
20260903120704 54 333 1.0 3.0 0.00 0.00 0.00 91 1016.4
20260903115705 54 5 1.0 3.0 0.00 0.00 0.00 91 1016.5
20260903115204 54 325 1.0 3.0 0.00 0.00 0.00 91 1016.5
20260903114704 54 0 1.0 3.0 0.00 0.00 0.00 91 1016.5
20260903114205 54 355 0.0 3.0 0.00 0.00 0.00 91 1016.5
20260903113704 54 21 0.0 0.0 0.00 0.00 0.00 91 1016.5
20260903113205 54 343 0.0 0.0 0.00 0.00 0.00 91 1016.6
20260903112704 55 343 0.0 0.0 0.00 0.00 0.00 91 1016.7
20260903112205 55 343 0.0 0.0 0.00 0.00 0.00 91 1016.8
20260903111704 55 355 0.0 0.0 0.00 0.00 0.00 91 1016.8
20260903111204 55 355 0.0 0.0 0.00 0.00 0.00 91 1016.9
20260903110204 55 355 0.0 0.0 0.00 0.00 0.00 91 1016.8
20260903105705 55 355 0.0 0.0 0.00 0.00 0.00 91 1016.9
20260903105204 55 343 0.0 0.0 0.00 0.00 0.00 91 1016.8
20260903104704 55 338 0.0 0.0 0.00 0.00 0.00 90 1016.9
20260903104205 55 338 0.0 0.0 0.00 0.00 0.00 90 1016.9
20260903103205 55 5 0.0 0.0 0.00 0.00 0.00 91 1016.8
20260903102705 55 338 0.0 0.0 0.00 0.00 0.00 90 1016.8
20260903102204 55 338 0.0 0.0 0.00 0.00 0.00 90 1016.9
20260903101204 55 338 0.0 0.0 0.00 0.00 0.00 90 1016.9
20260903100705 56 338 0.0 0.0 0.00 0.00 0.00 90 1016.8
20260903100204 56 5 0.0 0.0 0.00 0.00 0.00 90 1016.9
20260903095704 56 5 0.0 0.0 0.00 0.00 0.00 90 1016.9
20260903095205 56 5 0.0 0.0 0.00 0.00 0.00 90 1016.8
20260903094704 56 5 0.0 0.0 0.00 0.00 0.00 90 1016.8
20260903094204 56 5 0.0 0.0 0.00 0.00 0.00 90 1017.0
20260903093704 56 5 0.0 0.0 0.00 0.00 0.00 90 1017.0
20260903093205 56 5 0.0 0.0 0.00 0.00 0.00 90 1017.1
20260903092704 56 5 0.0 0.0 0.00 0.00 0.00 90 1017.2
20260903092205 56 5 0.0 0.0 0.00 0.00 0.00 90 1017.2
20260903091704 56 5 0.0 0.0 0.00 0.00 0.00 90 1017.3
20260903091205 56 20 0.0 0.0 0.00 0.00 0.00 90 1017.4
20260903090705 56 350 0.0 0.0 0.00 0.00 0.00 90 1017.3
20260903090205 56 5 0.0 0.0 0.00 0.00 0.00 90 1017.3
20260903085704 56 22 0.0 0.0 0.00 0.00 0.00 90 1017.3
20260903085204 56 21 0.0 0.0 0.00 0.00 0.00 89 1017.3
20260903084205 57 32 0.0 0.0 0.00 0.00 0.00 89 1017.5
20260903083704 57 44 0.0 0.0 0.00 0.00 0.00 89 1017.4
20260903082204 57 20 1.0 3.0 0.00 0.00 0.00 89 1017.4
20260903081704 57 40 1.0 3.0 0.00 0.00 0.00 89 1017.4
20260903081205 57 0 1.0 3.0 0.00 0.00 0.00 89 1017.3
20260903080704 57 14 1.0 3.0 0.00 0.00 0.00 89 1017.4
20260903080204 58 28 0.0 3.0 0.00 0.00 0.00 89 1017.4
20260903075704 58 46 0.0 2.0 0.00 0.00 0.00 89 1017.3
20260903074705 58 10 1.0 3.0 0.00 0.00 0.00 89 1017.3
20260903074204 58 345 1.0 2.0 0.00 0.00 0.00 89 1017.3
20260903073704 58 31 0.0 2.0 0.00 0.00 0.00 89 1017.3
20260903072704 58 41 1.0 2.0 0.00 0.00 0.00 89 1017.2
20260903072205 58 41 0.0 0.0 0.00 0.00 0.00 89 1017.3
20260903071704 59 41 0.0 0.0 0.00 0.00 0.00 89 1017.3
20260903071204 59 111 0.0 0.0 0.00 0.00 0.00 89 1017.3
20260903070705 59 111 0.0 0.0 0.00 0.00 0.00 89 1017.3
20260903065704 59 111 0.0 0.0 0.00 0.00 0.00 89 1017.3
20260903065204 59 111 0.0 0.0 0.00 0.00 0.00 89 1017.3
20260903064704 60 111 0.0 0.0 0.00 0.00 0.00 89 1017.2
20260903064205 60 111 0.0 0.0 0.00 0.00 0.00 89 1017.3
20260903063704 60 111 0.0 0.0 0.00 0.00 0.00 89 1017.3
20260903063204 60 111 0.0 1.0 0.00 0.00 0.00 89 1017.3
20260903062705 60 111 0.0 1.0 0.00 0.00 0.00 89 1017.2
20260903062204 60 111 0.0 2.0 0.00 0.00 0.00 89 1017.2
20260903061204 60 111 1.0 4.0 0.00 0.00 0.00 89 1017.2
20260903060704 60 111 1.0 3.0 0.00 0.00 0.00 89 1017.2
20260903060204 60 111 1.0 5.0 0.00 0.00 0.00 88 1017.3
20260903055204 61 104 1.0 5.0 0.00 0.00 0.00 88 1017.4
20260903054704 61 69 1.0 5.0 0.00 0.00 0.00 88 1017.4
20260903054205 61 100 1.0 5.0 0.00 0.00 0.00 88 1017.4
20260903053705 61 131 1.0 7.0 0.00 0.00 0.00 87 1017.5
20260903053204 61 98 2.0 7.0 0.00 0.00 0.00 87 1017.5
20260903052704 61 134 2.0 9.0 0.00 0.00 0.00 87 1017.6
20260903052204 61 63 2.0 9.0 0.00 0.00 0.00 87 1017.6
20260903051705 61 115 3.0 9.0 0.00 0.00 0.00 87 1017.5
20260903051205 61 92 3.0 8.0 0.00 0.00 0.00 86 1017.5
20260903050704 62 57 2.0 5.0 0.00 0.00 0.00 86 1017.5
20260903045704 62 132 1.0 4.0 0.00 0.00 0.00 86 1017.4
20260903045205 62 126 0.0 0.0 0.00 0.00 0.00 86 1017.4
20260903044704 62 63 0.0 0.0 0.00 0.00 0.00 86 1017.4
20260903043704 62 63 0.0 2.0 0.00 0.00 0.00 86 1017.3
20260903043204 62 63 0.0 4.0 0.00 0.00 0.00 86 1017.2
20260903042205 63 117 1.0 4.0 0.00 0.00 0.00 86 1017.2
20260903041704 63 121 2.0 4.0 0.00 0.00 0.00 85 1017.1
20260903040705 63 119 0.0 2.0 0.00 0.00 0.00 85 1017.1
20260903040205 63 87 0.0 3.0 0.00 0.00 0.00 85 1017.0
20260903035704 63 87 0.0 3.0 0.00 0.00 0.00 84 1016.9
20260903035204 63 87 1.0 5.0 0.00 0.00 0.00 84 1016.8
20260903034704 63 67 2.0 5.0 0.00 0.00 0.00 84 1016.8
20260903034205 64 77 1.0 4.0 0.00 0.00 0.00 83 1016.7
20260903033704 64 74 0.0 4.0 0.00 0.00 0.00 83 1016.6
20260903032704 64 86 2.0 7.0 0.00 0.00 0.00 82 1016.5
20260903032205 65 54 2.0 7.0 0.00 0.00 0.00 81 1016.5
20260903031704 65 70 2.0 5.0 0.00 0.00 0.00 81 1016.4
20260903031204 65 84 1.0 2.0 0.00 0.00 0.00 80 1016.5
20260903030704 65 243 0.0 2.0 0.00 0.00 0.00 80 1016.4
20260903030205 65 243 0.0 2.0 0.00 0.00 0.00 79 1016.3
20260903025204 66 243 1.0 6.0 0.00 0.00 0.00 79 1016.2
20260903024704 66 243 3.0 6.0 0.00 0.00 0.00 79 1016.3
20260903024205 66 207 2.0 6.0 0.00 0.00 0.00 78 1016.3
20260903023704 66 213 1.0 4.0 0.00 0.00 0.00 78 1016.2
20260903023205 66 212 1.0 4.0 0.00 0.00 0.00 78 1016.3
20260903022705 66 212 2.0 5.0 0.00 0.00 0.00 78 1016.2
20260903022204 67 212 2.0 5.0 0.00 0.00 0.00 78 1016.3
20260903021705 67 209 3.0 6.0 0.00 0.00 0.00 77 1016.4
20260903021205 67 185 3.0 7.0 0.00 0.00 0.00 77 1016.4
20260903020704 67 242 3.0 7.0 0.00 0.00 0.00 77 1016.4
20260903020205 67 162 3.0 7.0 0.00 0.00 0.00 77 1016.4
20260903015704 67 194 3.0 8.0 0.00 0.00 0.00 77 1016.5
20260903015204 67 263 4.0 8.0 0.00 0.00 0.00 76 1016.5
20260903014704 68 229 4.0 8.0 0.00 0.00 0.00 75 1016.6
20260903013705 68 215 4.0 9.0 0.00 0.00 0.00 75 1016.8
20260903013204 68 169 4.0 9.0 0.00 0.00 0.00 75 1016.8
20260903012704 68 244 4.0 9.0 0.00 0.00 0.00 75 1016.8
20260903012204 68 187 4.0 10.0 0.00 0.00 0.00 74 1016.9
20260903011705 68 213 4.0 10.0 0.00 0.00 0.00 74 1017.0
20260903011204 68 216 5.0 11.0 0.00 0.00 0.00 75 1017.0
20260903010705 68 221 5.0 11.0 0.00 0.00 0.00 76 1017.0
20260903010204 68 211 5.0 11.0 0.00 0.00 0.00 76 1016.9
20260903005704 68 196 5.0 11.0 0.00 0.00 0.00 77 1017.0
20260903005204 68 205 5.0 11.0 0.00 0.00 0.00 77 1017.0
20260903004704 68 192 6.0 12.0 0.00 0.00 0.00 78 1017.1
20260903004205 68 214 6.0 12.0 0.00 0.00 0.00 77 1017.0
20260903003704 68 198 5.0 12.0 0.00 0.00 0.00 77 1017.0
20260903003205 68 188 6.0 9.0 0.00 0.00 0.00 77 1017.1
20260903002704 69 196 5.0 10.0 0.00 0.00 0.00 76 1017.1
20260903002204 69 179 5.0 11.0 0.00 0.00 0.00 76 1017.0
20260903001704 69 227 5.0 11.0 0.00 0.00 0.00 76 1017.1
20260903000704 69 193 6.0 13.0 0.00 0.00 0.00 75 1017.3
20260903000204 69 175 6.0 13.0 0.00 0.00 0.00 75 1017.2
20260902235704 70 228 6.0 11.0 0.00 0.00 0.00 75 1017.3
20260902235205 70 239 5.0 10.0 0.00 0.00 0.00 74 1017.2
20260902233704 70 212 5.0 9.0 0.00 0.00 0.00 75 1017.3
20260902233204 70 188 5.0 10.0 0.00 0.00 0.00 75 1017.3
20260902232704 70 184 4.0 12.0 0.00 0.00 0.00 76 1017.4
20260902232204 69 218 5.0 12.0 0.00 0.00 0.00 77 1017.5
20260902231704 68 218 6.0 12.0 0.00 0.00 0.00 78 1017.5
20260902231204 68 189 6.0 13.0 0.00 0.00 0.00 77 1017.6
20260902230705 68 210 6.0 13.0 0.00 0.00 0.00 77 1017.6
20260902230205 68 165 6.0 15.0 0.00 0.00 0.00 78 1017.6
20260902225704 68 182 6.0 15.0 0.00 0.00 0.00 78 1017.8
20260902225204 68 186 7.0 15.0 0.00 0.00 0.00 78 1017.7
20260902224704 68 188 6.0 13.0 0.00 0.00 0.00 77 1017.9
20260902223704 68 187 8.0 15.0 0.00 0.00 0.00 78 1018.0
20260902223204 68 209 8.0 15.0 0.00 0.00 0.00 78 1018.0
20260902222704 68 192 7.0 15.0 0.00 0.00 0.00 77 1018.0
20260902222205 68 186 8.0 15.0 0.00 0.00 0.00 78 1018.0
20260902221704 68 207 8.0 16.0 0.00 0.00 0.00 77 1018.1
20260902221204 69 208 7.0 16.0 0.00 0.00 0.00 78 1018.1
20260902220205 69 216 7.0 13.0 0.00 0.00 0.00 75 1018.2
20260902215205 70 197 6.0 13.0 0.00 0.00 0.00 75 1018.3
20260902214704 70 238 6.0 12.0 0.00 0.00 0.00 75 1018.3
20260902214204 70 224 6.0 14.0 0.00 0.00 0.00 76 1018.2
20260902213705 69 213 7.0 14.0 0.00 0.00 0.00 77 1018.4
20260902213204 69 219 8.0 14.0 0.00 0.00 0.00 77 1018.4
20260902212704 69 195 7.0 14.0 0.00 0.00 0.00 76 1018.5
20260902212205 70 194 7.0 12.0 0.00 0.00 0.00 77 1018.5
20260902211704 70 219 7.0 12.0 0.00 0.00 0.00 76 1018.5
20260902211204 70 204 6.0 12.0 0.00 0.00 0.00 76 1018.5
20260902210705 70 205 7.0 14.0 0.00 0.00 0.00 77 1018.5
20260902210204 70 194 7.0 14.0 0.00 0.00 0.00 76 1018.4
20260902205704 70 211 8.0 14.0 0.00 0.00 0.00 76 1018.5
20260902205204 70 193 7.0 11.0 0.00 0.00 0.00 75 1018.6
20260902204705 71 191 6.0 11.0 0.00 0.00 0.00 73 1018.5
20260902204204 71 199 7.0 12.0 0.00 0.00 0.00 73 1018.4
20260902203705 71 186 7.0 12.0 0.00 0.00 0.00 73 1018.5
20260902203204 72 146 5.0 12.0 0.00 0.00 0.00 72 1018.6
20260902202704 71 249 5.0 10.0 0.00 0.00 0.00 73 1018.6
20260902202205 70 259 5.0 10.0 0.00 0.00 0.00 75 1018.7
20260902201704 70 180 5.0 11.0 0.00 0.00 0.00 74 1018.7
20260902201204 70 204 6.0 11.0 0.00 0.00 0.00 75 1018.6
20260902200704 70 185 6.0 11.0 0.00 0.00 0.00 74 1018.7
20260902200204 71 207 6.0 10.0 0.00 0.00 0.00 73 1018.7
20260902195704 71 215 5.0 10.0 0.00 0.00 0.00 73 1018.7
20260902194704 71 279 6.0 10.0 0.00 0.00 0.00 74 1018.7
20260902194205 71 148 6.0 10.0 0.00 0.00 0.00 72 1018.7
20260902193704 71 219 4.0 7.0 0.00 0.00 0.00 74 1018.8
20260902193204 70 203 4.0 7.0 0.00 0.00 0.00 74 1018.8
20260902192704 70 236 4.0 7.0 0.00 0.00 0.00 75 1018.9
20260902192204 70 245 4.0 9.0 0.00 0.00 0.00 75 1018.8
20260902191705 69 262 4.0 9.0 0.00 0.00 0.00 76 1018.9
20260902191204 69 168 4.0 8.0 0.00 0.00 0.00 76 1018.8
20260902190705 69 182 5.0 8.0 0.00 0.00 0.00 76 1018.9
20260902190205 69 191 4.0 8.0 0.00 0.00 0.00 76 1018.9
20260902185704 69 235 4.0 7.0 0.00 0.00 0.00 76 1018.9
20260902185205 69 253 4.0 7.0 0.00 0.00 0.00 76 1019.0
20260902184704 68 166 4.0 7.0 0.00 0.00 0.00 75 1018.9
20260902183704 68 167 2.0 5.0 0.00 0.00 0.00 75 1019.0
20260902183204 67 130 3.0 5.0 0.00 0.00 0.00 75 1018.9
20260902182705 67 206 3.0 5.0 0.00 0.00 0.00 75 1018.9
20260902182204 67 131 3.0 5.0 0.00 0.00 0.00 76 1019.0
20260902181704 66 182 2.0 7.0 0.00 0.00 0.00 76 1018.9
20260902180704 66 134 3.0 7.0 0.00 0.00 0.00 78 1018.9
20260902175704 65 134 3.0 7.0 0.00 0.00 0.00 79 1018.9
20260902175204 65 114 3.0 7.0 0.00 0.00 0.00 79 1018.9
20260902174704 65 132 3.0 7.0 0.00 0.00 0.00 80 1019.0
20260902174205 64 138 3.0 5.0 0.00 0.00 0.00 80 1018.9
20260902173704 64 186 3.0 5.0 0.00 0.00 0.00 81 1018.9
20260902173204 64 128 3.0 6.0 0.00 0.00 0.00 81 1018.8
20260902172704 64 113 3.0 6.0 0.00 0.00 0.00 81 1018.9
20260902172204 64 172 3.0 6.0 0.00 0.00 0.00 81 1018.9
20260902171705 64 200 2.0 5.0 0.00 0.00 0.00 80 1019.0
20260902171204 65 117 3.0 5.0 0.00 0.00 0.00 81 1018.8
20260902170705 65 149 3.0 7.0 0.00 0.00 0.00 80 1018.8
20260902170205 65 152 3.0 7.0 0.00 0.00 0.00 79 1018.8
20260902165704 65 190 3.0 7.0 0.00 0.00 0.00 80 1018.7
20260902165204 65 132 3.0 5.0 0.00 0.00 0.00 80 1018.8
20260902164704 65 144 3.0 5.0 0.00 0.00 0.00 81 1018.8
20260902164204 64 86 3.0 5.0 0.00 0.00 0.00 82 1018.7
20260902163704 64 121 2.0 4.0 0.00 0.00 0.00 83 1018.7
20260902163205 63 125 1.0 4.0 0.00 0.00 0.00 83 1018.8
20260902162704 63 78 2.0 4.0 0.00 0.00 0.00 84 1018.9
20260902162204 63 91 3.0 4.0 0.00 0.00 0.00 84 1018.9
20260902161205 62 108 2.0 4.0 0.00 0.00 0.00 83 1018.8
20260902160204 62 117 2.0 4.0 0.00 0.00 0.00 83 1018.8
20260902155705 62 63 2.0 4.0 0.00 0.00 0.00 82 1018.8
20260902155204 62 61 3.0 4.0 0.00 0.00 0.00 83 1018.8
20260902154704 62 117 2.0 4.0 0.00 0.00 0.00 83 1018.7
20260902153704 60 171 1.0 4.0 0.00 0.00 0.00 83 1018.6
20260902153205 60 171 1.0 4.0 0.00 0.00 0.00 83 1018.5
20260902152704 60 230 2.0 5.0 0.00 0.00 0.00 83 1018.4
20260902152204 59 51 2.0 5.0 0.00 0.00 0.00 84 1018.4
20260902151204 58 42 2.0 4.0 0.00 0.00 0.00 85 1018.2
20260902150204 57 0 1.0 3.0 0.00 0.00 0.00 86 1018.2
20260902145705 56 46 0.0 3.0 0.00 0.00 0.00 87 1018.2
20260902145204 56 23 0.0 3.0 0.00 0.00 0.00 87 1018.4
20260902144705 56 36 0.0 3.0 0.00 0.00 0.00 87 1018.3
20260902143704 55 51 1.0 3.0 0.00 0.00 0.00 87 1018.3
20260902143205 55 30 1.0 3.0 0.00 0.00 0.00 87 1018.3
20260902142705 55 28 1.0 3.0 0.00 0.00 0.00 87 1018.2
20260902142204 55 355 1.0 3.0 0.00 0.00 0.00 87 1018.1
20260902141705 55 27 0.0 2.0 0.00 0.00 0.00 87 1018.0
20260902141205 54 19 0.0 0.0 0.00 0.00 0.00 86 1018.0
20260902140704 54 19 0.0 2.0 0.00 0.00 0.00 86 1017.9
20260902140204 54 19 0.0 3.0 0.00 0.00 0.00 86 1017.9
20260902135705 54 19 1.0 4.0 0.00 0.00 0.00 86 1017.9
20260902135204 55 19 1.0 4.0 0.00 0.00 0.00 86 1017.8
20260902134205 55 342 1.0 5.0 0.00 0.00 0.00 86 1017.8
20260902133705 55 9 2.0 5.0 0.00 0.00 0.00 86 1017.8
20260902133205 55 355 2.0 5.0 0.00 0.00 0.00 86 1017.7
20260902132705 55 42 1.0 4.0 0.00 0.00 0.00 86 1017.6
20260902132205 54 9 1.0 5.0 0.00 0.00 0.00 86 1017.6
20260902131704 55 341 2.0 5.0 0.00 0.00 0.00 86 1017.6
20260902131205 54 16 2.0 5.0 0.00 0.00 0.00 86 1017.7